SpaceMobile-003

operational
NORAD ID: 61045 Int'l Des: 2024-163 Owner: ASTS Country: US Constellation: bluewalker
LEOCIRCULAR

Über SpaceMobile-003

Beschreibung wird geladen...

Live-Position

3D-Globus wird geladen...

Nächste Überflüge

Höhenverlauf

Altitude vs Time

uPlot chart will show altitude changes over time

Zweizeiliger Elementsatz

1 61045U 24163A 26062.02651603 .00006285 00000-0 29202-3 0 9990
2 61045 52.9680 77.7427 0006084 164.2206 195.8979 15.21250654 81616
Epoch: 3. März 2026 • Age: 8 hours

Aktueller Status

Höhe 509.5 km
Geschwindigkeit 7.61 km/s
Subsatellitenpunkt -12.09°S, 139.05°E
Startdatum 12. Sept. 2024
Alter 1.4 years
Typ other

Technische Details

Klassifizierung Payload
Masse 1500.00 kg
Trockenmasse 1500.00 kg
Gesamtmasse 1500.00 kg
Länge 1.00 m
Durchmesser 1.00 m
Spannweite 9.00 m
Form Box + plate
Hersteller ASTS
Bus-Typ BW3
Phasenstatus In Orbit
Besitzer/Staat ASTS/US

Große Konstellationen

Loading constellations...